Overview Statistics Trail Chart Weather Telemetry Raw packets
 

This is the latest recevied weather packets stored in our database for station/object KI4NG. If no packets are shown the sender has not sent any weather packets the latest 10 day(s).

<< 89 90 91 92 93 94 95 >>
Time Temp. Humidity Pressure Rain* Wind** Luminosity Snow
1787962764 22.78° C 84% 1019.7 hPa 0 mm - 0 W/m² -
1787962463 23.33° C 83% 1020 hPa 0 mm - 1 W/m² -
1787962162 23.33° C 83% 1019.7 hPa 0 mm - 4 W/m² -
1787961857 23.33° C 82% 1019.7 hPa 0 mm - 6 W/m² -
1787961555 23.89° C 81% 1019.7 hPa 0 mm - 10 W/m² -
1787961250 23.89° C 80% 1019.6 hPa 0 mm - 16 W/m² -
1787960949 24.44° C 79% 1019.5 hPa 0 mm - 18 W/m² -
1787960644 24.44° C 79% 1019.5 hPa 0 mm - 21 W/m² -
1787960343 25° C 77% 1019.6 hPa 0 mm - 25 W/m² -
1787960038 25° C 76% 1019.4 hPa 0 mm - 28 W/m² -
1787959732 25° C 75% 1019.4 hPa 0 mm - 31 W/m² -
1787959428 25.56° C 73% 1019.4 hPa 0 mm - 35 W/m² -
1787959122 26.11° C 71% 1019.7 hPa 0 mm - 38 W/m² -
1787958818 26.11° C 70% 1019.4 hPa 0 mm - 41 W/m² -
1787958513 26.67° C 69% 1019.6 hPa 0 mm - 44 W/m² -
1787958209 26.67° C 68% 1019.5 hPa 0 mm - 47 W/m² -
1787957902 27.22° C 65% 1019.6 hPa 0 mm - 50 W/m² -
1787957597 27.22° C 63% 1019.5 hPa 0 mm - 53 W/m² -
1787957292 27.78° C 62% 1019.5 hPa 0 mm - 53 W/m² -
1787956992 28.33° C 58% 1019.5 hPa 0 mm - 140 W/m² -
1787956691 28.33° C 59% 1019.7 hPa 0 mm - 173 W/m² -
1787956386 28.33° C 58% 1019.7 hPa 0 mm - 187 W/m² -
1787956081 28.89° C 56% 1019.5 hPa 0 mm - 161 W/m² -
1787955777 28.89° C 58% 1019.3 hPa 0 mm - 199 W/m² -
1787955473 29.44° C 56% 1019.2 hPa 0 mm - 195 W/m² -

* Rain latest hour (hover to see other rain measurements)
** Current wind speed in m/s (hover to see current wind gust speed)